Location: Cruquius
(52.3348°N, 4.6319°E)
Time: 11:44:53
(UTC+00:00)

NOSS 3-3 (C) - Visible Passes

Search period start: 28 September 2021 00:00
Search period end: 08 October 2021 00:00
Orbit: 801 x 1411 km, 63.4° (Epoch: 24 September)

Date Brightness Start Highest point End Pass type
(mag) Time Alt. Az. Time Alt. Az. Time Alt. Az.
28 Sep 4.7 17:47:03 10° NW 17:54:05 58° NNE 18:02:07 10° ESE visible
28 Sep 5.0 19:38:01 10° NW 19:45:17 58° SW 19:50:58 21° SSE visible
28 Sep 6.6 21:30:42 10° WNW 21:35:06 16° WSW 21:38:25 13° SW visible
29 Sep 4.7 18:53:09 10° NW 19:00:30 77° SW 19:08:05 13° SE visible
29 Sep 6.2 20:44:53 10° WNW 20:50:45 24° WSW 20:55:34 14° SSW visible
30 Sep 4.5 18:08:20 10° NW 18:15:38 83° NE 18:23:59 10° SE visible
30 Sep 5.8 19:59:36 10° NW 20:06:15 34° WSW 20:12:50 13° S visible
01 Oct 5.4 19:14:33 10° NW 19:21:39 48° WSW 19:29:35 10° SSE visible
01 Oct 6.9 21:08:26 10° W 21:11:13 12° WSW 21:14:06 10° WSW visible
02 Oct 4.9 18:29:38 10° NW 18:36:57 65° SW 18:45:12 10° SSE visible
02 Oct 6.6 20:21:50 10° WNW 20:26:56 19° WSW 20:32:21 10° SSW visible
03 Oct 4.7 17:44:47 10° NW 17:52:08 85° SW 18:00:30 10° SE visible
03 Oct 6.2 19:36:18 10° WNW 19:42:32 28° WSW 19:49:18 10° SSW visible
04 Oct 5.8 18:51:08 10° NW 18:57:59 39° WSW 19:05:36 10° S visible
05 Oct 5.3 18:06:08 10° NW 18:13:21 54° SW 18:21:27 10° SSE visible
05 Oct 7.0 19:59:07 10° WNW 20:03:05 15° WSW 20:07:14 10° SW visible
06 Oct 6.7 19:13:08 10° WNW 19:18:45 22° WSW 19:24:48 10° SSW visible
07 Oct 6.3 18:27:46 10° WNW 18:34:18 32° WSW 18:41:27 10° S visible
